Погода в Токмаке

Погода в Токмаке : погода сейчас, прогноз погоды и архив. Всё, что Вы хотите узнать о погоде в Токмаке!

Поиск расширенной информации на нашем сайте:

Другие новости

Новости СМИ2

Главная страница сайта

Новости сайта

03.07.2017

Напоминаем, что на нашем специализированном сайте Метеоцентр.Азия вы можете получить высокодетализированные автоматические прогнозы погоды по пунктам России, СНГ и мира в авиационном формате (включающие направление и скорость ветра, видимость, явления погоды, количество и форму облачности, нижнюю и верхнюю границу облачности).


Погода в Токмаке - сегодня

Время (UTC), дата Ветер
(°,м/с) 
Видим.   Явления Облачность Т
(°С)
Тd
(°С)
f(%) Тe
(°С)
Pmin
(гПа)
dP
(гПа)
Po
(мм)
O2
(г/м3)
Тmin Tmax R s Состояние
почвы
00 16.02.18 070 (В) 1-4  н/о  {туман}  ясно 
-9.1 -9.4 98 -9  1039.4  -0.2  702  294           
03 16.02.18 тихо () -2  20000 м    8/0 верхняя 
[Ci fib]
-8.1 -9.9 87 -8  1039.7  0.6  703  293  -10.1         
06 16.02.18 320 (СЗ) 1-4  20000 м    9/0 верхняя 
[Cs]
-2.8 -7.1 72 -2  1038.3  0.6  703  287  -9.4         
09 16.02.18 320 (СЗ) 1-3  20000 м    9/0 средняя 
[Ac und]
-3 -7.3 72 -3  1037.9  -0.4  703  287           
12 16.02.18 тихо () -2  20000 м    10/0 средняя 
[Ac und]
-5.8 -7.6 87 -6  1039.5  0.4  703  290  -9.4        частично
покрыта
пылью 
15 16.02.18 тихо () -1  н/о    10/0 средняя 
[As op]
-6.6 -7.1 96 -7  1039.3  -0.4  703  291    -2.4       
18 16.02.18 тихо ()   н/о  туман  ?/?  
-8.7 -9.8 92 -9  1039.8  -0.4  703  293    -2.4       
21 16.02.18 тихо () -0  н/о    10/0 средняя 
[As op]
-10.1 -11.4 90 -10  1039.2  -1  702  295           
00 17.02.18 тихо () -1  н/о  {туман}  8/0 средняя 
[As op]
-11.3 -12.6 90 -11  1039.2  -0.5  701  296           
03 17.02.18 тихо () -1  20000 м    4/0 средняя, верхняя 
[As op|Ci fib]
-11.5 -12.1 95 -12  1039.9  0.5  702  296  -12.1         
06 17.02.18 тихо () -2  20000 м    3/0 верхняя 
[Cs]
-4 -5.9 87 -4  1036  -0.6  701  287  -11.9         
09 17.02.18 тихо () -2  20000 м    10/0 средняя 
[Ac und]
-0.2 -7.5 58 -0  1034.1  -0.5  701  283           
12 17.02.18 тихо () -1  20000 м    10/0 средняя 
[As op]
-4.7 -7.1 83 -5  1036.5  0.7  702  288           
15 17.02.18 тихо () -1  н/о    3/0 средняя 
[As op]
-6.1 -7.6 89 -6  1035.9  -1.1  701  289    +1.6       
18 17.02.18 тихо ()   н/о  туман  ?/?  
-8.2 -8.8 95 -8  1036.1  -0.7  700  292    +1.6       
21 17.02.18 тихо ()   н/о  туман  ?/?  
-8.5 -9.2 95 -9  1035.1  -0.9  700  292           
00 18.02.18 тихо () -1  н/о  в посл. час туман  10/0 средняя 
[As op]
-9.1 -9.8 95 -9  1034.2  -1.1  699  292           
03 18.02.18 090 (В) 1-2  4000 м    10/10 600 м 
[St]
-9.4 -10.6 91 -9  1034.6  0.2  699  293  -9.5         
06 18.02.18 тихо () -2  10 км    10/10 600 м 
[St]
-8.3 -9.7 90 -8  1035.2  0.9  700  292  -9.7         
09 18.02.18 тихо () -1  10 км    10/10 600 м 
[Sc]
-7 -7.5 96 -7  1033.9  -0.7  699  290           
12 18.02.18 тихо () -1  10 км  слаб. снег  10/10 600 м 
[Frnb]
-7 -7.5 96 -7  1035.6  1.5  700  290           
15 18.02.18 320 (СЗ) н/о  слаб. снег  10/10 600 м 
[Frnb]
-7.1 -7.6 96 -7  1036.4  0.8  701  291    -6.8       
18 18.02.18 тихо ()   н/о  слаб. снег  10/10 600 м 
[Frnb]
-7.2 -8.1 93 -7  1036.8  0.2  701  291    -6.8  0.4     
21 18.02.18 тихо () -2  н/о    10/10 600 м 
[Sc]
-7.4 -8 95 -7  1037.1  0.2  701  291           
00 19.02.18 090 (В) 2-5  н/о    6/0 верхняя 
[Ci fib]
-11.1 -13.9 80 -13  1038.4  -0.2  701  296           
Время (UTC), дата Ветер
(°,м/с) 
Видим.   Явления Облачность Т
(°С)
Тd
(°С)
f(%) Тe
(°С)
Pmin
(гПа)
dP
(гПа)
Po
(мм)
O2
(г/м3)
Тmin Tmax R s Состояние
почвы

Для получения пояснительной информации подведите курсор к названию столбца.

ПОГОДА в Токмаке - архив

Всё, что Вы хотите узнать о погоде в Токмаке - удобно и подробно!

Выберите нужную дату (начиная с 1 января 2015* года) и нажмите кнопку "Найти".
Будут отображены архивные сводки погоды по пункту Токмак, начиная с указанной даты.


Отображать данные в формате CSV (для использования в таблицах Excel)


Внимание! Наш архив погоды предназначен исключительно для личного некоммерческого использования в познавательных целях. Если Вам необходимы официальные справки о состоянии погоды (для производственных, юридических, коммерческих и т.п. целей), обращайтесь в органы Росгидромета.

*Примечание: данная дата относится к архиву по метеостанциям СССР (Россия, СНГ, Балтия).
Архив по метеостанциям Зарубежной Европы и Азии (кроме Китая) хранится 10 дней, по другим регионам земного шара (Китай, Африка, Америка, Австралия, Океания) - 1 день.

Токмак - район местоположения метеостанции


Название, широта, долгота, высота метеостанции:
Токмак 42.8°ш. 75.3°д. 817 м над ур. моря [Кыргызстан]

Дополнительная информация

В oтличие oт бoльшинства пoгoдных сайтoв мы публикуем пoдрoбную метеoинфoрмацию в детальнoм прoфессиoнальнoм фoрмате.

Характеристики температуры и влажнoсти вoздуха измеряются на высoте 2 м в тени вдали oт зданий и деревьев.
Скoрoсть ветра измеряется на высoте 10 м (на урoвне рoста челoвека скoрoсть ветра ниже в 1.5-2 раза). Если метеoстанция нахoдится в гoрoде или в лесу, тo скoрoсть ветра занижена на 2-4 м/с пo сравнению с oткрытым местoм. Скoрoсть ветра над акватoриями крупных рек и oзёр, а также на вершинах хoлмoв на 2-5 м/с выше, чем в oбычных услoвиях.
Атмoсфернoе давление в разных тoчках местнoсти мoжет значительнo oтличаться oт давления на метеoстанции, в зависимoсти oт услoвий рельефа (при пoдъёме на 10 м давление пoнижается примернo на 1 мм рт.ст.).